SCP
0 0 0 0 0 -0 -0 -0 -0 0 0 0 0 0 0 0 0 0 1 0 1 1
0 0 0 0 0 0 0 -0 -0 -0 0 0 0 0 0 0 0 0 0 1 0 1
0 0 0 0 0 0 0 0 -0 -0 -0 0 0 0 0 0 0 0 0 0 0 -0
0 0 0 0 0 0 0 0 0 0 0 0 0 0 0 0 0 0 0 0 0 0
-0 -0 0 0 0 -0 0 0 0 0 0 0 0 0 0 0 0 0 0 0 0 0
-0 -0 -0 -0 0 0 -0 0 0 0 0 0 0 0 0 0 0 0 0 0 0 0
-0 -0 -0 0 0 0 0 0 0 0 0 0 0 0 0 0 0 0 0 0 0 0
-0 -0 -0 0 0 0 0 0 0 0 0 0 0 0 0 0 0 0 0 0 0 0
0 0 0 0 0 0 0 0 0 0 0 0 0 0 0 0 0 0 0 0 0 0
0 0 0 0 0 1 0 0 0 0 0 0 0 0 0 0 0 0 0 0 0 0
0 1 0 1 1 0 0 0 0 0 0 0 0 0 0 0 0 0 0 0 0 0
1 1 1 1 1 1 0 0 0 0 0 0 0 0 0 0 0 0 0 0 0 0
1 1 1 1 0 0 0 0 0 0 0 0 0 0 0 0 0 0 0 0 0 0
0 0 0 0 0 0 0 0 0 0 0 0 0 0 0 0 0 0 0 0 0 0
Wind_Speed_500mb
13 5 5 11 13 15 21 25 34 38 36 45 26 21 24 35 41 40 43 49 51 39
7 1 8 15 15 15 20 24 31 35 33 35 29 18 15 9 23 26 27 33 39 45
3 8 8 11 16 19 23 28 33 36 32 29 30 26 16 23 25 29 34 39 41 42
5 6 9 9 12 19 22 30 32 35 32 30 26 25 18 11 17 31 33 33 34 36
15 15 9 9 9 15 23 26 32 36 31 29 28 28 20 16 15 17 25 40 45 31
18 16 11 10 9 12 20 24 25 31 31 30 28 28 24 22 21 25 28 30 31 41
14 7 2 1 9 11 18 19 25 27 30 31 30 24 21 20 22 23 24 27 34 35
13 11 12 16 20 21 20 21 26 34 35 31 28 25 40 36 30 26 28 29 29 29
12 14 21 21 26 27 18 21 28 37 41 35 27 31 30 36 36 33 34 34 34 36
16 22 31 30 27 22 24 30 33 38 37 32 28 34 36 33 33 31 30 33 37 37
21 28 34 23 20 25 29 32 34 36 37 38 32 39 39 41 34 33 33 34 33 37
22 19 18 20 24 29 32 35 38 39 41 41 40 43 42 44 42 36 37 33 31 33
22 21 24 32 38 39 38 40 42 46 44 43 44 42 50 46 41 42 40 37 33 34
30 32 34 40 44 47 49 51 48 41 38 39 35 37 47 52 48 40 42 40 36 30
Wind_Direction_500mb
179 186 289 319 323 322 319 322 324 331 337 343 331 331 256 232 236 236 245 245 243 247
174 292 318 337 358 335 342 337 336 346 343 349 346 322 315 211 217 232 245 242 248 252
195 338 21 12 358 356 358 357 358 358 349 342 352 346 315 270 254 252 254 256 256 258
136 94 59 43 22 11 11 16 13 4 358 343 331 338 320 307 274 254 251 254 250 255
105 93 93 83 56 22 11 5 7 7 358 351 345 335 312 303 283 289 278 262 260 277
115 93 86 61 22 11 12 358 349 347 344 343 347 343 335 295 283 282 283 289 280 272
180 190 233 285 337 307 335 338 340 344 341 333 327 327 327 329 322 318 303 285 277 277
193 244 273 277 302 312 316 325 334 339 338 330 326 310 301 306 304 299 298 299 294 288
230 260 312 298 298 305 299 312 322 331 339 339 335 307 314 312 308 300 295 293 293 292
273 281 309 303 297 288 296 308 317 321 326 328 327 317 320 317 315 312 301 296 294 290
284 288 297 287 284 294 300 304 309 312 314 315 316 310 314 312 319 311 307 305 295 289
286 292 280 285 293 299 300 303 306 308 309 307 304 301 306 304 312 308 307 306 300 291
285 288 291 293 298 299 302 306 303 302 303 301 300 300 296 298 307 306 303 300 300 296
296 299 301 300 303 305 305 305 307 305 305 303 304 299 301 303 302 300 294 296 295 284
Wind_Speed_850mb
13 5 5 11 13 15 21 25 34 38 36 45 26 21 24 35 41 40 43 49 51 39
7 1 8 15 15 15 20 24 31 35 33 35 29 18 15 9 23 26 27 33 39 45
3 8 8 11 16 19 23 28 33 36 32 29 30 26 16 23 25 29 34 39 41 42
5 6 9 9 12 19 22 30 32 35 32 30 26 25 18 11 17 31 33 33 34 36
15 15 9 9 9 15 23 26 32 36 31 29 28 28 20 16 15 17 25 40 45 31
18 16 11 10 9 12 20 24 25 31 31 30 28 28 24 22 21 25 28 30 31 41
14 7 2 1 9 11 18 19 25 27 30 31 30 24 21 20 22 23 24 27 34 35
13 11 12 16 20 21 20 21 26 34 35 31 28 25 40 36 30 26 28 29 29 29
12 14 21 21 26 27 18 21 28 37 41 35 27 31 30 36 36 33 34 34 34 36
16 22 31 30 27 22 24 30 33 38 37 32 28 34 36 33 33 31 30 33 37 37
21 28 34 23 20 25 29 32 34 36 37 38 32 39 39 41 34 33 33 34 33 37
22 19 18 20 24 29 32 35 38 39 41 41 40 43 42 44 42 36 37 33 31 33
22 21 24 32 38 39 38 40 42 46 44 43 44 42 50 46 41 42 40 37 33 34
30 32 34 40 44 47 49 51 48 41 38 39 35 37 47 52 48 40 42 40 36 30
Wind_Direction_850mb
179 186 289 319 323 322 319 322 324 331 337 343 331 331 256 232 236 236 245 245 243 247
174 292 318 337 358 335 342 337 336 346 343 349 346 322 315 211 217 232 245 242 248 252
195 338 21 12 358 356 358 357 358 358 349 342 352 346 315 270 254 252 254 256 256 258
136 94 59 43 22 11 11 16 13 4 358 343 331 338 320 307 274 254 251 254 250 255
105 93 93 83 56 22 11 5 7 7 358 351 345 335 312 303 283 289 278 262 260 277
115 93 86 61 22 11 12 358 349 347 344 343 347 343 335 295 283 282 283 289 280 272
180 190 233 285 337 307 335 338 340 344 341 333 327 327 327 329 322 318 303 285 277 277
193 244 273 277 302 312 316 325 334 339 338 330 326 310 301 306 304 299 298 299 294 288
230 260 312 298 298 305 299 312 322 331 339 339 335 307 314 312 308 300 295 293 293 292
273 281 309 303 297 288 296 308 317 321 326 328 327 317 320 317 315 312 301 296 294 290
284 288 297 287 284 294 300 304 309 312 314 315 316 310 314 312 319 311 307 305 295 289
286 292 280 285 293 299 300 303 306 308 309 307 304 301 306 304 312 308 307 306 300 291
285 288 291 293 298 299 302 306 303 302 303 301 300 300 296 298 307 306 303 300 300 296
296 299 301 300 303 305 305 305 307 305 305 303 304 299 301 303 302 300 294 296 295 284